This demonstration page uses our WeatherBlox Daily Observations layout. Learn more.

Left ArrowRight Arrow

Hourly Observations for October 24, 2018

Temp ( °F °C ) Dew Point ( °F °C ) Humidity (%) Winds ( mph kmh ) Pressure ( in mb ) Visibility ( mi km ) Precip ( " mm )
12:54 am 00:54 Clear 46 7.8 29 -1.7 51 51 ESE 5 7 30.32 1027 10 16.0934 0 0
1:54 am 01:54 Clear 41 5 30 -1.1 65 65 ENE 3 6 30.32 1027 10 16.0934 0 0
2:54 am 02:54 Clear 38 3.3 30 -1.1 73 73 Calm 30.33 1027 10 16.0934 0 0
3:54 am 03:54 Clear 39 3.9 31 -0.6 73 73 E 5 7 30.32 1027 10 16.0934 0 0
4:54 am 04:54 Clear 41 5 31 -0.6 67 67 E 5 7 30.31 1027 10 16.0934 0 0
5:54 am 05:54 Clear 38 3.3 31 -0.6 76 76 Calm 30.31 1027 10 16.0934 0 0
6:54 am 06:54 Clear 37 2.8 31 -0.6 79 79 Calm 30.32 1027 10 16.0934 0 0
7:54 am 07:54 Sunny 33 0.6 29 -1.7 85 85 N 5 7 30.32 1027 10 16.0934 0 0
8:54 am 08:54 Sunny 40 4.4 34 1.1 79 79 Calm 30.31 1026 10 16.0934 0 0
9:54 am 09:54 Sunny 48 8.9 36 2.2 63 63 SSW 6 9 30.31 1026 10 16.0934 0 0
10:54 am 10:54 Sunny 52 11.1 35 1.7 53 53 SSE 13 20 30.3 1026 10 16.0934 0 0
11:54 am 11:54 Sunny 54 12.2 36 2.2 51 51 SSE 10 17 30.27 1025 10 16.0934 0 0
12:54 pm 12:54 Mostly Cloudy 59 15 36 2.2 42 42 SE 7 11 30.24 1024 10 16.0934 0 0
1:54 pm 13:54 Cloudy 59 15 36 2.2 42 42 SE 9 15 30.22 1023 10 16.0934 0 0
2:54 pm 14:54 Cloudy 60 15.6 38 3.3 44 44 SSE 10 17 30.18 1022 10 16.0934 0 0
3:54 pm 15:54 Cloudy 59 15 38 3.3 46 46 ESE 8 13 30.17 1022 10 16.0934 0 0
4:54 pm 16:54 Cloudy 59 15 38 3.3 46 46 ESE 8 13 30.16 1021 10 16.0934 0 0
5:54 pm 17:54 Cloudy 59 15 38 3.3 46 46 SE 8 13 30.16 1021 10 16.0934 0 0
6:54 pm 18:54 Partly Cloudy 58 14.4 37 2.8 46 46 SE 9 15 30.16 1021 10 16.0934 0 0
7:54 pm 19:54 Cloudy 57 13.9 36 2.2 45 45 SE 8 13 30.16 1021 10 16.0934 0 0
8:54 pm 20:54 Cloudy 57 13.9 34 1.1 42 42 SE 8 13 30.14 1021 10 16.0934 0 0
9:54 pm 21:54 Mostly Cloudy 55 12.8 35 1.7 47 47 SSE 10 17 30.14 1021 10 16.0934 0 0
10:54 pm 22:54 Mostly Clear 54 12.2 36 2.2 51 51 SSE 10 17 30.13 1020 10 16.0934 0 0
11:54 pm 23:54 Mostly Clear 54 12.2 36 2.2 51 51 SSE 10 17 30.12 1020 10 16.0934 0 0

Powered by AerisWeather